Temp
2 2 2 2 2 2 2 3 3 3 3 3 3 3 3 3 3 3 3 3 3 3 3 3 3 3 3 2 2 2 1 1 1 0 -1 -3 -5 -5 -4 -4 -4 -5 -6 -6 -6 -6 -6 -5 -4 -6 -7 -7 -8 -8
2 2 2 2 2 2 2 1 1 1 2 2 2 2 2 2 2 2 2 2 2 2 3 3 3 3 2 2 2 2 0 0 -0 -1 -3 -3 -3 -4 -4 -6 -5 -6 -4 -5 -6 -5 -5 -6 -6 -7 -7 -8 -8 -8
2 2 2 2 2 2 1 0 1 1 0 1 0 1 0 1 1 0 0 1 1 1 2 2 2 2 2 1 1 1 1 0 -0 -2 -2 -3 -4 -5 -6 -5 -5 -5 -5 -6 -6 -4 -5 -6 -7 -8 -8 -8 -8 -9
1 2 2 2 2 2 2 2 0 0 1 0 1 0 0 -0 -1 -1 -1 -0 -0 -0 0 2 2 1 1 1 1 -0 -0 0 -1 -2 -3 -3 -3 -4 -5 -5 -5 -4 -6 -4 -6 -5 -7 -7 -7 -8 -8 -9 -9 -9
1 1 1 1 1 1 1 2 1 1 -0 -0 -1 -0 -0 -1 -0 -0 -0 -1 -1 -2 -1 0 0 1 1 1 1 0 -0 0 -1 -3 -3 -4 -3 -4 -5 -6 -2 -4 -5 -6 -7 -7 -7 -7 -7 -8 -9 -9 -10 -11
0 0 0 0 0 0 1 1 1 1 -0 -1 -1 -1 -1 -1 -1 -1 -0 -1 -2 -2 -2 -1 0 1 1 1 1 1 2 -0 -2 -3 -3 -4 -4 -6 -6 -4 -0 -4 -5 -6 -6 -6 -6 -7 -8 -9 -9 -10 -10 -11
0 -0 -0 -0 -0 -0 -0 0 -0 -0 -1 -2 -2 -2 -2 -1 -1 -2 -2 -2 -2 -2 -3 -2 -1 1 1 1 1 0 -0 -1 -2 -3 -4 -4 -6 -8 -7 -2 -2 -3 -4 -5 -6 -6 -7 -8 -8 -9 -9 -9 -10 -10
0 0 -0 -0 -1 -1 -1 -1 -1 -1 -2 -5 -3 -3 -3 -3 -2 -1 -3 -2 -2 -3 -3 -3 -1 -1 -1 -0 -1 -1 -2 -3 -3 -4 -4 -5 -7 -8 -6 -1 -3 -4 -5 -5 -6 -7 -8 -8 -8 -9 -9 -9 -10 -10
-0 -0 -0 -1 -1 -1 -2 -2 -2 -2 -3 -6 -5 -5 -5 -4 -3 -2 -3 -3 -4 -4 -4 -2 -1 -3 -3 -2 -2 -3 -3 -5 -6 -5 -6 -7 -7 -6 -0 -3 -4 -5 -5 -6 -7 -8 -8 -8 -9 -9 -9 -10 -10 -10
-2 -2 -2 -1 -2 -2 -2 -2 -3 -4 -6 -7 -7 -6 -5 -4 -4 -4 -5 -5 -5 -4 -4 -2 -1 -3 -3 -4 -5 -6 -6 -6 -7 -5 -7 -6 -2 -2 -3 -4 -5 -4 -6 -6 -7 -7 -7 -8 -9 -9 -10 -10 -11 -11
-4 -4 -4 -4 -4 -4 -4 -4 -5 -6 -7 -6 -7 -7 -6 -6 -6 -6 -6 -6 -4 -4 -2 -1 -1 -2 -3 -5 -6 -7 -8 -8 -7 -7 -8 -7 -3 -2 -3 -4 -5 -5 -6 -7 -7 -8 -8 -9 -9 -9 -10 -10 -11 -11
-7 -7 -7 -7 -7 -7 -6 -6 -7 -7 -7 -6 -6 -7 -7 -7 -7 -7 -6 -5 -4 -3 -2 -2 -1 -2 -2 -5 -6 -7 -8 -9 -8 -9 -9 -6 -3 -3 -4 -5 -5 -6 -6 -7 -7 -8 -9 -9 -10 -10 -10 -10 -11 -11
-7 -7 -7 -8 -8 -9 -9 -9 -9 -8 -9 -6 -6 -6 -7 -7 -7 -7 -5 -4 -4 -3 -3 -2 -2 -3 -4 -6 -8 -7 -8 -7 -9 -9 -7 -3 -3 -4 -5 -5 -6 -6 -7 -7 -8 -8 -9 -9 -10 -10 -10 -10 -11 -11
-7 -8 -9 -9 -9 -9 -9 -9 -10 -9 -9 -7 -7 -7 -7 -7 -6 -3 -2 -3 -3 -3 -3 -3 -2 -4 -5 -6 -8 -7 -7 -8 -10 -9 -4 -3 -3 -4 -5 -6 -6 -6 -7 -8 -8 -9 -9 -9 -10 -10 -10 -10 -11 -11
-9 -10 -10 -9 -9 -9 -9 -9 -10 -9 -10 -8 -8 -7 -7 -5 -4 -3 -3 -4 -4 -4 -4 -3 -4 -5 -5 -7 -8 -8 -9 -8 -8 -4 -3 -3 -4 -5 -6 -6 -6 -7 -7 -8 -8 -9 -9 -10 -10 -10 -10 -10 -11 -11
-9 -10 -8 -9 -9 -9 -9 -9 -9 -9 -9 -9 -9 -8 -6 -5 -5 -5 -5 -5 -4 -4 -4 -5 -5 -6 -6 -6 -8 -7 -7 -5 -4 -3 -4 -4 -5 -6 -6 -7 -7 -7 -8 -8 -8 -9 -9 -10 -10 -10 -10 -11 -11 -11
-9 -8 -8 -9 -9 -9 -10 -10 -9 -10 -9 -9 -8 -7 -7 -6 -5 -5 -6 -6 -6 -6 -5 -5 -5 -5 -6 -8 -7 -6 -5 -3 -4 -4 -4 -5 -6 -6 -7 -7 -7 -7 -8 -8 -9 -9 -10 -10 -10 -10 -10 -11 -11 -11
-9 -8 -9 -9 -10 -9 -10 -10 -9 -10 -9 -9 -9 -7 -6 -6 -7 -7 -6 -6 -6 -6 -6 -6 -6 -5 -5 -5 -4 -4 -4 -4 -5 -5 -6 -6 -7 -7 -8 -8 -8 -8 -8 -8 -9 -10 -10 -10 -10 -10 -10 -11 -11 -11
-8 -9 -9 -9 -9 -9 -10 -10 -10 -10 -9 -9 -8 -7 -7 -7 -7 -7 -7 -7 -7 -7 -7 -7 -7 -6 -5 -4 -4 -4 -4 -5 -5 -6 -7 -7 -8 -8 -8 -9 -8 -8 -8 -9 -9 -10 -10 -10 -10 -10 -11 -11 -11 -11
-9 -9 -9 -9 -9 -9 -10 -10 -10 -10 -9 -9 -8 -8 -7 -8 -8 -8 -7 -7 -7 -8 -8 -7 -6 -5 -4 -5 -5 -5 -5 -6 -6 -7 -7 -8 -9 -9 -9 -9 -9 -9 -9 -9 -10 -10 -10 -11 -11 -11 -11 -11 -11 -12
-9 -9 -9 -9 -9 -9 -10 -9 -9 -9 -9 -9 -8 -8 -8 -8 -8 -8 -8 -7 -8 -8 -7 -5 -4 -5 -6 -6 -6 -7 -7 -7 -7 -8 -9 -10 -10 -10 -10 -9 -9 -9 -9 -9 -10 -10 -11 -11 -11 -11 -11 -12 -12 -12
-9 -9 -9 -9 -9 -9 -9 -9 -9 -9 -9 -8 -8 -8 -9 -8 -8 -9 -8 -8 -8 -7 -6 -5 -4 -5 -7 -7 -7 -7 -7 -7 -8 -8 -9 -9 -9 -10 -9 -9 -9 -9 -9 -10 -10 -10 -11 -11 -11 -11 -11 -12 -12 -12
-9 -9 -9 -9 -10 -9 -9 -9 -9 -9 -9 -9 -8 -9 -9 -9 -9 -9 -9 -9 -7 -6 -5 -5 -5 -6 -6 -7 -8 -8 -7 -7 -8 -8 -9 -9 -9 -9 -9 -9 -9 -9 -10 -10 -10 -11 -11 -11 -11 -11 -12 -12 -12 -12
-9 -9 -9 -9 -9 -9 -10 -9 -9 -9 -9 -9 -9 -9 -9 -9 -9 -10 -9 -7 -6 -6 -6 -5 -6 -6 -6 -7 -7 -7 -8 -8 -8 -9 -9 -9 -9 -9 -10 -10 -10 -10 -10 -10 -11 -11 -11 -11 -11 -11 -12 -12 -12 -12
-9 -9 -9 -9 -9 -9 -9 -9 -10 -10 -10 -9 -10 -10 -9 -9 -9 -9 -7 -6 -7 -6 -6 -6 -8 -7 -6 -7 -7 -8 -8 -8 -9 -9 -9 -9 -9 -9 -9 -10 -10 -10 -10 -11 -11 -11 -11 -11 -11 -12 -12 -12 -12 -12
-9 -9 -9 -9 -9 -9 -9 -9 -9 -9 -9 -9 -9 -9 -9 -9 -10 -9 -8 -8 -8 -8 -8 -7 -7 -7 -7 -8 -8 -8 -8 -9 -9 -9 -9 -9 -10 -10 -10 -10 -10 -10 -11 -11 -11 -11 -12 -12 -12 -12 -12 -12 -12 -12
-9 -9 -9 -8 -8 -8 -8 -9 -8 -8 -9 -9 -9 -9 -10 -10 -9 -9 -8 -8 -8 -8 -8 -8 -7 -7 -8 -8 -8 -8 -8 -8 -9 -9 -9 -10 -10 -10 -10 -10 -11 -11 -11 -11 -11 -11 -12 -12 -12 -12 -12 -12 -12 -12
-8 -8 -7 -7 -8 -8 -8 -7 -8 -8 -8 -9 -9 -9 -9 -9 -8 -8 -8 -9 -8 -8 -8 -8 -8 -8 -8 -8 -8 -8 -9 -9 -9 -9 -10 -10 -10 -11 -11 -11 -11 -11 -11 -12 -12 -12 -12 -12 -12 -12 -12 -12 -12 -12
-8 -8 -8 -8 -8 -8 -8 -8 -8 -8 -8 -9 -9 -9 -9 -9 -9 -9 -9 -9 -9 -9 -9 -9 -9 -9 -9 -9 -9 -9 -9 -10 -10 -10 -11 -11 -11 -11 -11 -11 -11 -12 -12 -12 -12 -12 -12 -12 -12 -12 -12 -12 -12 -12
-8 -8 -8 -8 -9 -9 -8 -8 -9 -9 -9 -9 -9 -9 -9 -9 -10 -10 -10 -10 -10 -10 -10 -10 -9 -9 -9 -9 -9 -10 -10 -10 -11 -11 -11 -11 -11 -12 -11 -11 -12 -12 -12 -12 -12 -12 -12 -12 -12 -12 -12 -12 -12 -12
-8 -8 -8 -8 -8 -8 -9 -9 -9 -9 -10 -10 -10 -10 -10 -10 -10 -10 -10 -10 -10 -10 -10 -10 -10 -10 -10 -10 -11 -11 -11 -11 -11 -11 -11 -12 -12 -12 -12 -12 -12 -12 -12 -12 -12 -12 -12 -12 -12 -12 -12 -12 -12 -12
-8 -8 -8 -9 -9 -10 -10 -10 -10 -10 -10 -10 -10 -10 -10 -10 -10 -10 -11 -11 -11 -11 -11 -11 -11 -11 -11 -11 -12 -12 -12 -12 -12 -12 -12 -12 -12 -12 -12 -12 -12 -12 -12 -12 -12 -12 -12 -12 -12 -12 -13 -13 -13 -13
-9 -9 -9 -10 -10 -10 -10 -10 -10 -10 -11 -11 -11 -11 -11 -11 -11 -11 -11 -11 -11 -11 -11 -11 -11 -11 -11 -12 -12 -12 -12 -12 -12 -12 -12 -13 -13 -13 -13 -12 -12 -12 -12 -12 -12 -12 -12 -12 -13 -13 -13 -13 -13 -13
Height
3151 3151 3152 3152 3152 3152 3153 3153 3153 3153 3153 3152 3152 3152 3151 3150 3150 3149 3148 3146 3146 3143 3143 3141 3139 3138 3136 3135 3133 3131 3130 3127 3125 3124 3123 3122 3119 3117 3114 3112 3110 3108 3106 3102 3098 3096 3086 3079 3074 3076 3065 3052 3049 3040
3143 3144 3144 3144 3143 3143 3144 3145 3146 3146 3146 3146 3145 3145 3145 3144 3143 3143 3143 3141 3139 3138 3138 3136 3134 3132 3130 3130 3129 3127 3126 3123 3122 3120 3118 3116 3114 3111 3108 3104 3103 3100 3097 3096 3094 3081 3074 3072 3067 3061 3056 3047 3037 3031
3134 3134 3135 3136 3136 3136 3136 3137 3138 3138 3138 3137 3138 3137 3138 3138 3136 3135 3134 3134 3132 3131 3130 3129 3127 3126 3125 3124 3123 3122 3119 3118 3116 3116 3114 3112 3109 3105 3102 3097 3094 3091 3090 3084 3081 3070 3068 3064 3059 3054 3048 3039 3030 3023
3123 3124 3124 3125 3126 3126 3127 3128 3128 3129 3129 3129 3130 3129 3128 3130 3129 3128 3125 3126 3124 3122 3121 3121 3118 3120 3119 3118 3116 3116 3112 3110 3110 3108 3106 3104 3102 3099 3092 3090 3085 3085 3080 3073 3065 3062 3058 3057 3052 3043 3035 3028 3018 3009
3111 3112 3113 3113 3114 3115 3116 3117 3118 3118 3119 3119 3120 3119 3121 3121 3121 3120 3119 3117 3116 3118 3115 3114 3112 3113 3111 3109 3109 3108 3106 3104 3103 3100 3098 3095 3095 3091 3085 3079 3070 3072 3069 3066 3058 3058 3052 3046 3041 3034 3024 3014 3006 2996
3098 3100 3101 3102 3103 3103 3104 3105 3106 3107 3108 3110 3112 3111 3111 3112 3113 3112 3113 3112 3110 3110 3110 3107 3104 3105 3103 3102 3100 3099 3099 3097 3095 3092 3089 3085 3090 3087 3078 3067 3065 3063 3061 3060 3053 3049 3044 3040 3033 3024 3013 3003 2993 2985
3083 3085 3087 3088 3090 3091 3092 3093 3095 3095 3097 3100 3101 3102 3100 3102 3103 3105 3105 3104 3104 3104 3103 3099 3095 3096 3096 3096 3095 3094 3092 3089 3087 3084 3078 3078 3079 3081 3067 3059 3060 3056 3053 3051 3047 3041 3035 3032 3020 3013 3004 2996 2987 2980
3068 3069 3071 3073 3076 3077 3079 3080 3082 3084 3085 3088 3090 3091 3091 3089 3091 3094 3096 3095 3096 3097 3097 3093 3089 3088 3089 3087 3087 3085 3084 3082 3076 3075 3071 3069 3070 3067 3054 3053 3050 3047 3043 3042 3038 3035 3029 3022 3014 3006 2998 2989 2979 2971
3051 3052 3054 3057 3059 3062 3065 3067 3069 3072 3074 3077 3079 3080 3079 3079 3079 3082 3085 3086 3086 3091 3085 3079 3077 3079 3077 3079 3078 3077 3075 3072 3069 3063 3062 3064 3057 3046 3046 3045 3043 3040 3038 3035 3031 3027 3021 3014 3006 2999 2991 2982 2973 2963
3033 3035 3037 3039 3041 3045 3049 3052 3055 3059 3063 3068 3067 3065 3064 3066 3070 3075 3074 3076 3076 3074 3069 3064 3066 3069 3073 3071 3070 3072 3067 3065 3060 3055 3055 3048 3038 3036 3039 3036 3033 3033 3032 3029 3023 3019 3012 3005 2998 2991 2984 2976 2968 2959
3015 3016 3019 3021 3024 3027 3032 3037 3042 3047 3054 3051 3050 3052 3055 3058 3061 3064 3066 3064 3062 3060 3055 3052 3056 3060 3061 3062 3063 3064 3061 3058 3053 3051 3049 3038 3026 3029 3030 3030 3029 3027 3025 3022 3017 3012 3006 2999 2991 2985 2979 2971 2964 2956
2999 3001 3004 3006 3009 3013 3017 3022 3028 3032 3036 3038 3038 3041 3047 3047 3048 3056 3052 3049 3044 3042 3041 3042 3048 3050 3050 3053 3055 3054 3054 3053 3046 3044 3041 3028 3024 3024 3025 3024 3023 3021 3018 3014 3009 3004 2999 2994 2988 2981 2974 2967 2960 2953
2984 2986 2989 2993 2996 3000 3004 3009 3016 3022 3024 3026 3024 3021 3023 3029 3032 3030 3029 3027 3023 3026 3031 3035 3039 3040 3042 3046 3046 3046 3044 3042 3039 3035 3025 3018 3020 3020 3019 3019 3017 3014 3011 3006 3002 2997 2993 2989 2984 2977 2970 2964 2957 2951
2971 2973 2976 2980 2984 2988 2993 2999 3005 3010 3012 3011 3007 3003 3001 3004 3003 3003 3007 3012 3019 3022 3025 3030 3031 3033 3034 3036 3037 3035 3034 3033 3028 3022 3014 3014 3013 3013 3012 3011 3010 3007 3004 2999 2995 2991 2987 2983 2979 2973 2967 2960 2953 2948
2957 2961 2965 2967 2972 2978 2983 2988 2994 2997 2997 2995 2992 2984 2983 2992 2995 2998 3004 3006 3006 3009 3016 3019 3022 3025 3025 3027 3028 3029 3026 3017 3011 3008 3009 3008 3008 3007 3005 3003 3002 3000 2996 2993 2989 2985 2982 2978 2974 2970 2964 2958 2951 2946
2944 2949 2950 2955 2961 2966 2973 2978 2981 2983 2980 2979 2973 2973 2979 2982 2987 2990 2994 2994 2995 3001 3008 3011 3013 3013 3012 3015 3015 3012 3009 3000 3004 3003 3003 3001 3002 3000 2998 2996 2995 2993 2989 2986 2983 2980 2976 2973 2969 2966 2960 2955 2949 2945
2929 2931 2939 2944 2950 2955 2962 2966 2968 2965 2961 2962 2962 2967 2973 2977 2979 2984 2985 2982 2987 2992 2997 3002 3001 3002 3003 3003 3000 2996 2992 2999 2998 2996 2994 2994 2994 2993 2991 2990 2988 2985 2983 2980 2977 2973 2971 2968 2965 2961 2957 2953 2948 2944
2913 2920 2926 2933 2939 2944 2947 2950 2951 2951 2948 2950 2955 2958 2962 2966 2973 2975 2973 2970 2977 2982 2987 2990 2993 2988 2986 2987 2985 2989 2991 2990 2988 2987 2986 2986 2987 2985 2985 2982 2980 2978 2975 2973 2971 2967 2965 2963 2961 2957 2953 2949 2945 2942
2902 2909 2914 2921 2927 2931 2933 2935 2938 2936 2938 2941 2943 2951 2952 2955 2959 2967 2960 2961 2969 2974 2976 2976 2978 2972 2972 2976 2981 2982 2981 2980 2981 2979 2979 2977 2976 2976 2974 2973 2972 2970 2968 2966 2964 2961 2959 2957 2956 2952 2949 2945 2942 2939
2891 2897 2903 2909 2914 2916 2919 2922 2924 2927 2927 2932 2936 2939 2943 2945 2948 2952 2949 2954 2958 2961 2960 2959 2958 2963 2968 2971 2973 2972 2973 2970 2969 2969 2967 2969 2967 2965 2964 2964 2964 2962 2961 2959 2957 2955 2953 2952 2950 2948 2945 2941 2939 2936
2878 2884 2892 2899 2901 2904 2908 2908 2911 2916 2920 2921 2927 2931 2930 2932 2935 2937 2938 2942 2942 2939 2942 2947 2952 2955 2959 2961 2962 2961 2964 2962 2959 2958 2957 2956 2956 2955 2955 2954 2954 2954 2953 2951 2950 2949 2947 2947 2945 2943 2941 2938 2936 2933
2868 2878 2883 2885 2890 2895 2898 2897 2903 2907 2912 2913 2918 2921 2922 2925 2928 2926 2929 2928 2925 2929 2936 2941 2943 2946 2949 2950 2951 2949 2951 2950 2948 2947 2947 2948 2947 2945 2945 2945 2946 2946 2945 2944 2943 2943 2942 2942 2940 2939 2937 2935 2933 2931
2862 2868 2874 2879 2884 2886 2886 2891 2897 2901 2906 2907 2910 2911 2910 2912 2914 2919 2918 2915 2915 2921 2926 2930 2934 2936 2938 2940 2941 2939 2936 2936 2936 2936 2937 2937 2937 2936 2936 2937 2938 2938 2938 2938 2937 2937 2938 2937 2936 2934 2933 2931 2929 2928
2856 2862 2867 2870 2872 2875 2880 2885 2890 2893 2898 2901 2903 2905 2905 2906 2908 2908 2906 2905 2907 2912 2916 2920 2923 2926 2927 2927 2926 2927 2926 2924 2925 2926 2927 2927 2927 2927 2928 2929 2930 2931 2931 2931 2931 2932 2933 2932 2931 2930 2928 2927 2926 2924
2853 2857 2860 2861 2864 2870 2874 2878 2883 2886 2890 2893 2896 2897 2897 2900 2900 2899 2896 2894 2898 2902 2907 2909 2909 2913 2913 2913 2914 2915 2914 2913 2916 2917 2918 2918 2919 2919 2921 2922 2923 2924 2925 2925 2926 2928 2927 2927 2927 2926 2924 2923 2922 2921
2844 2847 2850 2852 2860 2868 2870 2874 2877 2881 2885 2888 2889 2891 2893 2892 2893 2889 2886 2890 2893 2895 2897 2898 2901 2901 2901 2902 2903 2903 2905 2905 2907 2908 2908 2910 2911 2912 2914 2915 2917 2918 2919 2920 2922 2922 2922 2923 2922 2922 2921 2919 2919 2917
2840 2842 2846 2849 2855 2859 2865 2870 2874 2877 2879 2881 2881 2883 2885 2886 2884 2883 2884 2884 2886 2888 2888 2889 2889 2890 2891 2892 2893 2894 2896 2897 2898 2899 2900 2903 2904 2906 2908 2909 2911 2913 2913 2915 2916 2917 2917 2918 2917 2917 2916 2915 2914 2913
2838 2841 2844 2849 2854 2859 2862 2865 2869 2871 2873 2873 2875 2875 2877 2878 2878 2879 2880 2882 2883 2883 2883 2884 2884 2884 2884 2885 2886 2887 2888 2889 2890 2892 2895 2897 2898 2900 2902 2903 2905 2907 2908 2910 2911 2911 2912 2912 2912 2911 2911 2910 2910 2908
2836 2841 2846 2850 2854 2856 2859 2861 2864 2866 2867 2868 2869 2870 2871 2872 2874 2874 2875 2876 2877 2878 2878 2878 2878 2878 2878 2879 2880 2882 2883 2885 2886 2887 2889 2891 2893 2896 2897 2898 2900 2902 2904 2905 2905 2906 2907 2907 2907 2906 2906 2905 2905 2904
2837 2841 2844 2848 2851 2853 2856 2858 2860 2861 2863 2863 2864 2865 2866 2867 2868 2869 2870 2870 2871 2872 2872 2873 2874 2874 2874 2876 2877 2878 2880 2881 2882 2884 2885 2887 2889 2890 2892 2894 2896 2897 2899 2900 2900 2901 2902 2902 2902 2901 2901 2900 2900 2899
2838 2841 2845 2848 2849 2851 2852 2854 2856 2857 2858 2859 2860 2861 2862 2863 2863 2864 2865 2865 2866 2867 2868 2869 2870 2871 2872 2873 2874 2875 2877 2878 2879 2880 2881 2883 2884 2886 2888 2890 2891 2893 2894 2895 2896 2897 2897 2897 2897 2896 2895 2894 2894 2893
2838 2840 2843 2844 2846 2848 2850 2851 2852 2853 2854 2856 2857 2858 2859 2860 2860 2861 2861 2862 2863 2864 2865 2865 2866 2867 2868 2869 2870 2871 2872 2874 2874 2876 2877 2879 2880 2882 2884 2886 2887 2888 2890 2891 2891 2892 2892 2892 2891 2890 2890 2889 2888 2886
2836 2839 2841 2843 2844 2846 2848 2850 2850 2852 2852 2853 2854 2855 2855 2856 2857 2859 2859 2860 2861 2861 2862 2862 2863 2864 2864 2864 2865 2866 2867 2868 2869 2870 2872 2873 2875 2877 2879 2881 2882 2884 2885 2886 2886 2887 2886 2886 2885 2884 2883 2882 2881 2880
Wind_Speed
29 31 31 32 31 31 30 29 28 27 27 27 26 27 28 27 26 25 23 20 18 18 17 15 14 17 16 15 14 15 17 11 14 8 7 5 9 8 12 13 18 13 9 13 16 23 21 10 32 38 52 54 49 48
35 33 33 32 32 33 33 31 28 29 31 31 31 30 30 28 27 28 28 26 23 21 19 19 19 20 17 16 17 17 17 20 11 9 11 11 15 18 18 11 15 13 16 18 18 24 42 47 50 43 37 42 47 49
38 39 40 38 36 36 35 31 31 34 34 38 35 37 36 34 30 29 30 29 30 26 23 20 14 14 12 17 20 20 21 20 22 19 20 19 20 19 19 21 21 27 25 32 35 39 34 34 31 35 41 51 55 55
42 42 41 41 42 42 40 39 36 36 37 36 37 31 31 32 32 33 36 33 29 21 22 22 16 14 19 21 21 21 25 24 24 23 23 25 26 21 26 28 34 33 31 33 34 34 32 30 40 44 47 53 53 51
45 44 44 44 43 43 45 44 42 41 40 37 33 34 29 21 27 28 30 26 21 16 22 24 23 25 19 17 22 24 25 26 25 28 29 28 25 28 32 33 41 29 26 24 32 32 36 41 44 48 55 56 53 53
46 47 48 47 46 45 44 45 45 44 41 39 29 34 28 28 31 27 31 30 22 20 23 27 23 24 24 25 28 20 23 26 28 32 32 35 25 26 24 38 41 25 23 24 35 36 38 42 48 50 53 55 54 54
49 48 48 49 49 48 47 46 44 43 42 36 37 35 33 35 28 30 29 26 26 30 30 24 24 14 12 16 21 23 27 28 31 33 37 37 33 28 40 43 34 24 24 28 28 35 42 46 50 49 48 44 41 40
53 54 53 52 51 50 50 48 46 43 40 37 36 43 36 28 36 36 31 25 24 30 29 21 26 32 23 22 25 26 26 28 35 34 37 38 34 32 37 31 31 29 29 27 29 31 41 46 45 43 42 42 43 44
56 58 58 56 54 53 51 50 48 45 40 32 31 36 47 44 40 40 29 34 30 32 35 39 41 25 20 20 23 24 25 27 28 34 35 27 32 37 38 32 28 29 25 29 32 37 41 41 41 41 41 41 43 44
55 56 57 58 56 55 53 51 49 43 34 27 37 42 43 45 37 34 27 28 33 37 42 47 47 42 36 33 27 19 17 16 15 26 15 24 40 42 24 20 22 17 24 29 34 37 38 39 40 40 40 41 41 41
52 55 55 55 54 52 50 48 44 36 27 40 44 45 44 40 39 33 23 18 22 33 41 45 40 31 27 28 25 16 12 9 9 11 12 14 42 40 28 15 13 21 25 29 32 34 34 36 37 39 39 39 38 38
47 48 48 48 47 46 45 41 36 35 40 45 47 49 48 43 35 21 21 22 32 35 41 42 35 26 25 22 20 14 17 10 11 13 11 19 34 29 24 14 18 24 27 29 31 32 31 31 33 36 37 38 36 35
44 43 42 43 42 38 37 35 31 33 37 46 54 59 51 34 25 30 41 43 42 40 34 32 21 22 21 16 15 13 11 12 10 10 13 43 35 25 13 15 22 26 28 29 29 29 29 30 30 33 35 35 33 32
44 39 38 37 39 36 34 30 28 35 49 42 51 40 41 24 29 58 63 54 44 38 40 29 27 21 20 19 15 9 13 11 9 12 33 35 27 14 15 20 26 28 28 28 28 28 28 28 29 31 32 33 31 28
42 38 37 37 37 35 32 32 31 37 50 60 41 26 44 55 53 44 40 37 40 43 36 29 28 26 22 16 10 11 9 12 12 20 23 26 21 18 20 25 28 30 29 28 27 27 26 27 27 29 30 30 27 25
39 38 40 36 33 33 33 32 35 40 49 58 48 46 51 52 56 46 48 38 41 32 28 27 27 17 21 14 15 18 17 23 28 31 29 31 25 22 26 30 31 31 30 28 27 26 25 25 26 27 27 26 24 24
42 42 38 36 33 34 36 39 38 46 40 53 50 56 42 45 47 49 51 44 44 38 35 25 25 25 16 14 21 26 38 38 28 30 34 29 24 30 32 34 32 32 30 28 26 25 24 23 24 25 24 23 23 23
45 41 36 33 34 35 38 42 42 47 44 54 53 51 53 51 46 34 39 45 47 43 34 37 32 31 33 32 41 39 38 35 32 31 28 24 25 25 32 33 28 31 28 27 25 24 23 22 22 23 23 22 20 20
40 39 35 32 34 38 41 43 50 48 44 38 48 63 64 60 50 49 40 41 35 28 31 40 33 42 48 47 39 35 34 36 36 30 27 28 31 38 36 29 31 30 28 26 24 23 21 21 21 22 21 20 19 18
40 40 37 34 37 40 41 46 44 46 56 46 39 48 58 56 52 50 47 41 39 32 35 43 47 46 47 42 39 37 36 38 36 31 30 36 36 35 32 31 33 29 27 25 23 21 19 18 18 20 19 18 16 15
38 37 36 35 38 41 43 36 41 45 43 46 45 43 30 46 48 46 52 56 51 52 55 57 51 49 45 40 36 41 36 29 31 31 34 34 34 29 33 33 31 27 25 23 22 19 16 16 17 18 16 15 15 14
36 34 38 40 41 43 50 39 38 30 32 42 35 39 44 47 40 40 40 45 47 52 55 50 47 42 40 40 41 36 31 33 33 33 33 32 33 33 32 30 26 24 23 21 20 16 15 15 15 16 15 14 14 14
34 36 40 38 40 31 20 35 39 41 30 30 33 29 36 40 47 48 47 52 54 53 52 45 44 41 33 29 28 33 38 34 31 33 35 32 30 29 28 26 24 23 21 19 16 14 14 14 14 16 14 13 13 13
36 37 43 30 20 18 23 26 36 42 41 32 29 28 27 36 32 39 43 50 51 44 42 38 34 29 31 31 33 34 34 33 33 31 27 27 28 26 24 23 22 21 19 17 14 14 13 12 13 15 13 12 12 13
39 30 26 24 30 21 25 31 32 31 27 32 33 32 30 34 32 37 42 48 48 44 39 39 30 28 29 29 29 30 33 36 30 25 27 28 26 25 22 21 21 19 17 15 14 13 12 12 12 13 12 12 14 14
13 12 14 19 24 32 29 26 30 32 32 31 31 32 34 31 33 30 38 36 34 28 20 20 20 23 25 26 29 31 27 25 26 29 29 24 20 21 20 20 19 17 15 14 14 13 13 12 13 13 13 15 17 15
12 8 21 28 27 27 26 27 25 25 29 30 30 34 35 27 21 31 33 27 18 20 17 15 18 22 23 23 23 25 25 24 26 25 23 18 18 20 20 19 18 14 15 16 15 14 13 13 14 14 14 16 17 16
18 16 22 22 21 19 22 21 23 27 31 31 32 28 22 21 22 21 15 10 10 10 12 14 15 14 13 14 16 17 17 18 18 18 17 17 18 18 18 17 16 16 16 15 14 13 13 14 14 15 15 14 15 16
20 17 16 19 20 20 20 21 21 21 25 26 25 27 28 27 25 22 16 13 15 18 17 15 11 10 11 13 14 14 13 13 14 15 15 15 15 15 17 17 16 16 15 14 13 13 14 15 14 13 13 14 15 16
16 20 21 19 22 25 23 21 23 25 24 23 23 22 20 19 15 13 14 14 13 14 13 13 13 11 10 10 11 10 9 10 11 12 14 15 14 16 16 16 15 14 13 13 12 12 13 14 13 14 14 15 17 17
14 16 17 17 17 19 19 19 18 17 17 18 19 17 12 11 11 11 12 12 12 13 11 9 9 10 10 10 10 11 11 11 11 13 14 15 16 16 16 15 14 13 12 12 11 12 12 13 14 15 16 17 18 19
14 14 14 18 19 17 16 13 12 13 13 14 14 13 12 12 11 10 9 10 10 10 10 11 12 13 14 15 16 17 16 16 17 16 17 18 18 17 16 15 14 13 12 12 13 13 14 15 16 16 17 18 19 19
19 15 13 12 11 12 13 11 11 11 11 11 11 12 12 11 11 10 9 9 10 10 10 12 13 14 15 16 16 17 17 17 18 18 18 19 20 20 19 18 18 17 17 17 17 16 16 16 17 18 19 19 19 19
Wind_Direction
274 273 272 273 275 277 279 280 282 285 285 285 288 291 292 293 294 294 296 296 296 294 293 288 283 287 284 260 274 293 305 299 308 298 293 282 266 251 261 265 283 266 263 254 268 268 270 291 295 300 298 301 305 299
273 272 271 275 276 280 281 281 282 285 284 284 284 285 283 283 285 287 288 290 286 285 284 287 282 280 265 254 270 283 286 289 276 278 284 281 277 280 286 275 279 261 271 275 266 267 289 293 292 299 303 297 295 297
274 273 273 273 273 272 274 275 278 274 279 287 295 297 284 282 278 279 277 280 283 274 278 281 280 266 267 264 270 278 285 278 277 272 274 274 272 278 275 281 282 282 277 270 278 297 298 303 304 299 294 294 303 307
274 274 274 273 272 271 272 270 267 269 277 284 286 302 294 293 282 299 278 277 264 266 278 282 268 252 290 287 275 273 283 283 278 276 273 273 279 282 278 289 290 298 295 300 291 301 310 299 299 302 307 309 307 307
274 273 273 273 273 273 271 270 269 268 272 276 291 287 292 293 298 302 307 275 277 288 283 287 285 288 288 285 284 283 281 280 275 266 269 274 285 287 290 290 303 314 309 289 296 292 292 304 311 310 309 312 315 310
272 273 273 272 272 271 271 272 270 269 267 274 262 269 273 285 289 282 292 283 284 288 292 296 286 288 290 287 286 282 283 275 272 272 274 276 285 281 280 289 316 318 304 273 287 291 303 311 313 314 318 323 320 316
273 270 270 270 270 270 270 270 269 269 268 263 260 259 269 277 278 280 275 275 289 297 289 297 302 298 281 294 286 283 288 275 273 272 272 281 280 279 280 292 323 310 289 296 292 299 310 313 317 323 326 325 324 323
271 270 269 267 266 266 266 266 266 265 263 255 261 260 272 258 267 269 272 262 274 293 285 283 281 285 279 285 282 279 277 275 270 273 277 277 281 274 276 318 315 311 305 311 305 302 306 314 320 325 325 328 328 327
269 268 269 268 264 262 262 262 262 261 254 245 258 264 257 266 262 257 255 267 278 267 269 270 275 279 282 284 274 277 278 271 281 273 270 275 271 261 312 306 305 300 305 307 305 308 313 319 322 326 327 329 330 333
268 266 265 265 264 263 259 257 257 257 250 243 245 252 259 253 254 262 256 251 259 263 258 259 267 267 276 273 267 267 274 261 256 276 281 263 284 298 316 309 295 299 304 309 310 314 320 323 325 329 331 331 332 333
265 265 264 263 262 260 257 255 253 245 226 234 239 240 245 254 259 256 248 236 251 254 259 266 269 274 267 257 257 259 256 250 256 270 241 266 286 308 319 313 288 307 311 311 315 319 322 322 325 328 331 333 334 336
267 267 266 264 262 260 258 255 247 234 221 237 231 233 241 231 242 241 229 231 238 247 252 261 271 268 256 239 243 250 241 233 243 245 247 266 294 301 315 295 307 310 313 318 320 320 323 324 326 329 332 334 335 337
266 265 264 261 259 254 254 250 242 224 216 235 227 220 221 222 214 218 230 236 241 241 250 257 253 250 227 236 221 229 224 231 229 233 245 278 295 303 282 299 313 313 317 322 320 321 323 326 328 330 332 334 336 339
262 258 256 254 254 250 249 255 227 218 214 239 224 213 215 215 228 238 247 249 256 257 253 255 254 232 238 241 222 228 228 217 230 235 265 294 296 274 285 311 321 317 319 321 320 321 324 326 330 333 334 334 337 340
256 252 250 249 250 247 235 238 224 225 220 228 235 228 221 227 232 245 248 240 241 250 251 249 228 234 243 234 226 222 222 225 234 266 288 293 285 279 301 318 319 318 318 319 319 319 322 325 327 333 336 337 342 343
247 247 249 245 242 237 231 233 222 226 227 228 240 245 243 236 234 234 240 242 246 244 242 232 227 226 236 228 208 217 237 253 272 284 287 289 290 293 302 308 314 314 315 316 314 316 319 323 325 331 335 339 348 345
238 241 244 241 234 232 227 227 229 225 229 223 233 232 235 232 239 238 238 235 243 238 228 227 244 246 236 215 230 241 255 290 290 285 287 288 284 300 296 296 304 310 311 311 309 314 316 319 320 326 330 332 341 345
234 235 238 234 229 229 226 226 231 230 242 238 234 237 236 234 243 247 250 246 245 243 240 239 239 237 239 247 260 275 286 285 284 287 279 271 290 295 297 293 297 306 306 306 304 311 310 314 315 321 325 326 331 334
233 231 231 228 224 222 222 226 227 237 242 246 237 236 246 251 252 233 242 242 244 244 240 231 231 238 250 263 280 289 285 284 287 286 271 281 289 296 293 281 297 302 301 299 301 307 305 308 310 317 323 325 329 329
230 230 227 225 219 217 220 227 232 240 243 247 249 242 241 244 248 247 241 236 241 226 223 230 236 255 270 275 280 279 287 294 297 287 273 286 289 288 282 281 294 294 295 294 300 302 301 302 307 315 320 324 328 329
228 225 221 217 216 221 220 224 229 239 240 240 244 240 245 242 237 225 222 232 229 232 244 256 270 277 277 274 279 281 285 285 283 282 283 283 284 281 281 285 288 288 290 292 296 296 295 295 305 311 317 320 321 329
216 210 215 211 210 215 220 216 226 233 228 236 242 247 242 243 237 224 235 236 236 249 253 266 275 277 271 272 278 282 277 277 271 267 274 279 276 278 279 278 279 282 283 286 289 289 286 290 301 305 312 317 320 320
209 209 205 209 213 216 212 223 231 235 230 238 237 237 232 232 232 237 235 248 261 263 264 266 271 275 274 273 265 269 276 278 277 277 283 274 274 272 272 274 274 277 278 281 282 279 276 286 295 300 307 313 315 317
203 202 199 210 200 192 202 200 215 223 227 233 238 221 227 225 225 220 232 254 260 264 265 262 266 280 272 262 261 266 271 276 278 278 271 268 271 271 269 265 268 269 270 273 272 267 273 284 293 299 306 311 315 320
194 197 202 198 203 193 192 201 203 209 210 219 219 216 224 238 235 235 259 265 260 264 256 262 270 266 266 254 251 256 262 267 269 266 271 271 268 265 260 259 261 262 263 264 259 260 271 279 292 298 303 308 312 316
188 179 183 177 187 206 215 216 214 215 219 220 227 238 233 231 232 237 253 262 258 267 272 260 253 252 254 256 256 259 265 258 253 261 268 267 259 254 254 254 255 255 256 251 250 259 267 273 285 291 297 304 308 310
180 152 184 193 203 211 209 216 227 227 228 228 230 231 233 227 240 252 263 271 275 264 257 257 266 265 260 255 254 256 260 262 259 258 253 246 245 249 251 250 249 248 244 244 252 260 265 272 282 287 293 300 302 305
195 187 190 200 203 212 219 226 228 229 233 239 244 228 226 239 251 255 263 266 222 250 260 261 257 251 254 254 255 258 255 252 251 253 253 250 247 245 244 246 245 239 241 247 253 257 264 272 279 287 291 292 297 303
174 174 180 198 200 204 212 219 226 240 244 243 246 252 251 255 258 257 272 243 250 254 254 264 257 257 258 258 257 253 250 248 247 248 248 244 242 239 241 240 238 239 244 248 253 260 269 274 277 280 283 287 293 298
176 185 187 193 202 211 217 224 236 238 238 241 250 254 250 256 255 248 248 250 246 250 254 250 257 261 256 251 245 237 231 230 236 241 244 244 235 234 236 234 234 237 244 251 257 263 269 272 275 278 283 288 292 295
153 177 190 200 213 222 226 228 229 231 233 236 235 250 255 243 240 246 251 251 250 245 243 247 256 255 248 242 240 242 245 248 253 256 251 241 234 230 229 228 229 234 243 252 260 266 270 274 279 283 288 291 292 294
185 202 210 215 220 223 229 231 231 231 232 237 241 234 237 244 247 245 237 229 227 235 251 260 260 256 254 254 254 257 260 262 261 256 245 236 231 227 225 226 230 236 243 254 262 269 276 282 286 289 293 294 293 293
190 189 196 210 213 214 211 210 216 219 225 231 233 234 232 239 241 239 237 254 262 261 260 260 262 261 261 264 267 267 266 262 256 250 243 236 231 229 230 233 235 239 247 256 263 269 279 287 288 290 294 294 292 292